Regional Weather Roundup
Issued by NWS

Home | Current Version | Previous Version | Graphics & Text | Print | Product List | Glossary On
Versions: 1 2 3 4 5 6 7 8 9 10 11 12 13 14 15 16 17 18 19 20 21 22 23 24 25 26 27 28 29 30 31 32 33 34 35 36 37 38 39 40 41 42 43 44 45 46 47 48 49 50
659
ASUS44 KMEG 291210
RWRTN
TENNESSEE HOURLY STATE WEATHER ROUNDUP
NATIONAL WEATHER SERVICE MEMPHIS TN
700 AM CDT FRI APR 29 2016

TNZ002-004-019-021-049-052-054-088>092-291300-
WEST TENNESSEE

CITY           SKY/WX    TMP DP  RH WIND       PRES   REMARKS
MEMPHIS INTL   CLOUDY    67  51  56 E8        29.94R
NWS MEMPHIS      N/A     63 N/A N/A MISG        N/A
JACKSON        CLEAR     59  53  80 SE3       29.98S
DYERSBURG      CLOUDY    59  52  77 E8        29.99R
UNION CITY     CLEAR     59  54  82 NE8       29.98S
LEXINGTON      SUNNY     52  52 100 CALM      29.98F
$$

TNZ008-025-027-028-033-062-065-066-291300-
NORTH MIDDLE TENNESSEE

CITY           SKY/WX    TMP DP  RH WIND       PRES   REMARKS
NASHVILLE      MOSUNNY   56  52  86 CALM      30.02S
CLARKSVILLE    SUNNY     57  51  80 CALM      30.02S
SMYRNA         PTSUNNY   53  53 100 CALM      30.03S
COOKEVILLE     SUNNY     52  52 100 SW3       30.03R
CROSSVILLE     CLOUDY    56  51  84 CALM      30.07S
$$

TNZ061-075-076-078-094-096-097-291300-
SOUTH MIDDLE TENNESSEE

CITY           SKY/WX    TMP DP  RH WIND       PRES   REMARKS
FAYETTEVILLE   SUNNY     63  52  67 NE7       30.01S
TULLAHOMA      SUNNY     54  54 100 CALM      30.04S
WINCHESTER     SUNNY     55  52  88 CALM      30.03S
MCMINNVILLE    SUNNY     54  54 100 CALM      30.04S
COLUMBIA       SUNNY    N/A N/A N/A CALM      30.00S
SHELBYVILLE    SUNNY     57  54  88 E5        30.03S
$$

TNZ017-018-042-046-047-291300-
NORTHEAST TENNESSEE

CITY           SKY/WX    TMP DP  RH WIND       PRES   REMARKS
TRI CITIES     MOSUNNY   57  55  93 CALM      30.06R
$$

TNZ012-013-036-069-073-074-291300-
CENTRAL EAST TENNESSEE

CITY           SKY/WX    TMP DP  RH WIND       PRES   REMARKS
KNOXVILLE      CLOUDY    63  55  75 CALM      30.05
OAK RIDGE      CLOUDY    61  53  75 CALM      30.07R
GATLINBURG     SUNNY     55  54  94 CALM      30.06R
MORRISTOWN     SUNNY     61  54  77 SW3       30.06R
$$

TNZ083-085-099-291300-
SOUTHEAST TENNESSEE

CITY           SKY/WX    TMP DP  RH WIND       PRES   REMARKS
CHATTANOOGA    CLOUDY    60  55  83 CALM      30.05R
$$

SKY/WX REPORTED AS FAIR MEANS FEW OR NO CLOUDS BELOW
12 THOUSAND FEET.





USA.gov is the U.S. government's official web portal to all federal, state and local government web resources and services.